Location: Kershaw
(34.5481°N, 80.5823°W)
Time: 17:06:36
(UTC+00:00)

Courier 1B Rocket - Pass Details

Date: 26 September 2022
Orbit: 920 x 1202 km, 28.2° (Epoch: 08 December)

Event Time Altitude Azimuth Distance (km) Brightness Sun altitude
Rises 04:59:55 0° 258° (WSW) 3,546 - -56.5°
Reaches altitude 10° 05:02:34 10° 253° (WSW) 2,608 - -56.6°
Maximum altitude 05:08:33 49° 180° (S) 1,192 - -56.7°
Drops below altitude 10° 05:14:46 10° 107° (ESE) 2,710 - -56.7°
Sets 05:17:35 0° 102° (ESE) 3,697 - -56.7°
